map of CGH home
Great Circle Mapper logo
CGH - Airport
Location
City:  São Paulo, São Paulo, Brazil
Name:Congonhas International Airport
ICAO / IATA:SBSP / CGH

Details
Type:Airport (Aerodrome, Airfield)
Use:Public/Civil, International (customs port of entry)
Latitude:23°37'36"S (-23.626691)
Longitude:46°39'19"W (-46.655374)
Datum:WGS 1984
Elevation:2631 ft (802 m)
Variation:21.01°W (WMM2015 magnetic declination)
-0.12° annual change
Runways:2
Longest:6365 × 147 ft (1940 × 45 m), paved

Time
Time Zone:UTC-3 (DST-2)
Local Time:

Weather
METAR:SBSP 020500Z AUTO VRB02KT CAVOK 17/09 Q1021
TAF:SBSP 012200Z 0200/0224 05005KT CAVOK TN14/0209Z TX27/0218Z PROB30 0209/0211 00000KT 5000 BR NSC
TEMPO 0215/0219 35005KT
RMK PGD

Related Locations
Nearby:
Farthest:MMD: 12235 mi / 19691 km
Minami Daito Jima, Okinawa, JP

Find:

   beyond  
but within

Other Information
Maps:
NOTAMs:
Links:
Sources:

  
flag of Brazil
flag of São Paulo
flag of São Paulo
  

Sectional Chart

Flight Planning
at skyvector.com

Satellite Image

Google Maps Satellite view

 

Copyright © 2004-2015 Karl L. Swartz. All rights reserved.
The Great Circle Mapper name and logo are trademarks of the Great Circle Mapper.
All other trademarks mentioned herein belong to their respective owners.
Please see credits for attibutions and further copyright information.

  Follow gcmap on Facebook Follow gcmap on Twitter Follow gcmap on Google+

hCard Microformat

Geo Microformat